GEFSSGP_con_prob3kmehi_054.txt.gz
EHI
12 5 1 0 0 0 0 0 0 0 2 5 9 11 11 8 5 3 3 24 60 70 56 53 59 58 46 29 16 9 5 2 1 0 0 0 0 0 0 0 0 0 0 0 0 0 0 0 0
4 2 0 0 0 0 0 0 0 1 3 7 12 15 15 12 8 4 6 27 58 66 56 55 63 63 53 37 24 15 9 4 1 0 0 0 0 0 0 0 0 0 0 0 0 0 0 0 0
0 0 0 0 0 0 0 0 1 3 6 11 16 19 17 12 8 4 7 27 51 58 55 63 74 74 64 51 38 27 17 8 2 0 0 0 0 0 0 0 0 0 0 0 0 0 0 0 0
0 0 0 0 0 0 0 1 4 7 11 16 20 22 18 15 14 10 9 26 47 54 55 66 79 80 70 59 50 40 25 13 5 1 0 0 0 0 0 0 0 0 0 0 0 0 0 0 0
0 0 0 0 0 0 1 5 11 17 19 20 23 25 21 22 28 20 12 24 43 50 49 57 71 74 67 60 53 42 28 15 9 5 2 1 0 0 0 0 0 0 0 0 0 0 0 0 0
0 0 0 0 0 0 2 10 22 27 24 21 25 26 21 24 27 18 11 18 32 39 38 42 53 57 57 54 47 35 24 15 10 6 4 3 1 0 0 0 0 0 0 0 0 0 0 0 0
0 0 0 0 0 0 3 12 25 28 22 18 21 20 17 19 20 16 14 15 20 24 26 27 30 33 36 38 34 26 18 13 8 5 4 3 1 0 0 0 0 0 0 0 0 0 0 0 0
0 0 0 0 0 0 2 8 16 18 15 13 14 15 18 24 29 29 24 18 14 13 14 15 13 11 13 17 20 19 15 10 5 3 3 2 1 0 0 0 0 0 0 0 0 0 0 0 1
0 0 0 0 0 0 1 4 6 8 10 10 12 18 29 38 44 45 36 23 14 8 6 6 5 3 2 5 11 14 12 8 4 2 1 1 0 0 1 1 1 0 0 0 0 0 0 0 1
0 0 0 0 0 1 1 1 1 4 8 12 17 27 37 45 49 51 45 31 19 11 5 3 2 2 2 3 7 9 8 6 3 1 0 0 0 0 2 3 2 1 0 0 0 1 0 0 1
0 0 0 0 0 1 2 1 1 2 5 11 20 31 37 41 45 50 50 42 32 22 13 8 5 3 3 4 4 3 3 3 1 0 0 0 0 0 1 1 1 0 0 0 0 0 0 0 0
0 0 0 0 0 1 2 2 3 3 5 9 18 27 33 35 38 44 51 52 48 39 28 18 13 9 7 6 3 1 1 1 0 0 0 0 0 0 0 0 0 0 0 0 0 0 0 0 0
0 0 0 0 0 1 3 4 5 6 7 9 14 21 26 30 35 42 53 62 62 55 41 29 21 14 9 6 3 1 0 0 0 0 0 0 0 0 0 0 0 0 0 0 0 0 0 0 0
0 0 0 0 0 1 3 5 6 8 9 11 13 17 22 28 38 47 59 67 67 58 46 34 22 13 8 5 2 0 0 0 0 0 0 0 0 0 0 0 0 0 0 0 0 0 0 0 0
0 0 0 0 0 1 2 4 5 9 13 14 14 17 23 31 41 50 58 63 61 51 40 28 17 9 5 3 1 0 0 0 0 0 0 0 0 0 0 0 0 0 0 0 0 0 0 0 0
0 0 0 0 0 0 1 2 4 9 15 16 16 18 25 32 39 45 49 52 49 39 28 17 10 6 3 2 1 0 0 0 0 0 0 0 0 0 0 0 0 0 0 0 0 0 0 0 0
0 0 0 0 0 0 1 2 4 8 13 15 15 18 24 28 32 37 39 39 34 25 16 9 5 4 3 2 1 0 0 0 0 0 0 0 0 0 0 0 0 0 0 0 0 0 0 0 0
0 0 0 0 0 0 2 4 5 7 9 10 13 17 22 25 25 27 30 27 21 13 8 5 3 3 2 2 1 0 0 0 0 0 0 0 0 0 0 0 0 0 0 0 0 0 0 0 0
0 0 0 0 0 0 2 4 5 6 7 8 10 14 19 22 21 21 22 18 11 7 4 3 2 1 1 1 0 0 0 0 0 0 0 0 0 0 0 0 0 0 0 0 0 0 0 0 0
0 0 0 0 0 1 2 3 4 4 5 7 9 11 15 17 17 16 16 12 7 3 2 1 1 0 0 0 0 0 0 0 0 0 0 0 0 0 0 0 0 0 0 0 0 0 0 0 0
0 0 0 0 0 1 2 2 3 3 4 7 11 12 12 13 12 13 12 9 5 2 0 0 0 0 0 0 0 0 0 0 0 0 0 0 0 0 0 0 0 0 0 0 0 0 0 0 0
0 0 0 0 0 0 1 1 1 1 3 9 13 13 11 10 11 12 10 7 4 1 0 1 1 0 0 0 0 0 0 0 0 0 0 0 0 0 0 0 0 0 0 0 0 0 0 0 0
0 0 0 0 0 0 0 0 0 0 2 7 12 12 11 11 11 10 6 4 3 1 1 2 2 1 0 0 0 0 0 0 0 0 0 0 0 0 0 0 0 0 0 0 0 0 0 0 0
0 0 0 0 0 0 0 0 0 0 0 3 8 10 10 11 10 7 3 1 1 2 4 6 5 3 1 1 0 0 0 0 0 0 0 0 0 0 0 0 0 0 0 0 0 0 0 0 0
0 0 0 0 0 0 0 0 0 0 0 1 4 7 8 9 8 5 3 1 1 3 9 12 12 10 8 5 2 0 0 0 0 0 0 0 0 0 0 0 0 0 0 0 0 0 0 0 0
0 0 0 0 0 0 0 0 0 0 0 1 2 5 6 7 7 5 3 2 3 8 15 20 22 20 16 10 4 1 0 0 0 0 0 0 0 0 0 0 0 0 0 0 0 0 0 0 0
0 0 0 0 0 0 0 0 0 0 0 0 1 3 5 6 6 5 4 3 5 11 19 27 31 28 20 11 4 1 0 0 0 0 0 0 0 0 0 0 0 0 0 0 0 0 0 0 0
0 0 0 0 0 0 0 0 0 0 0 0 0 1 3 5 5 4 3 3 4 11 21 30 34 29 19 11 4 1 0 0 0 0 0 0 0 0 0 0 0 0 0 0 0 0 0 0 0
0 0 0 0 0 0 0 0 0 0 0 0 0 0 1 2 3 3 2 2 3 10 22 30 30 24 17 10 4 1 0 0 0 0 0 0 0 0 0 0 0 0 0 0 0 0 0 0 0
0 0 0 0 0 0 0 0 0 0 0 0 0 0 0 1 1 1 1 1 3 11 24 30 26 20 15 9 4 1 0 0 0 0 0 0 0 0 0 0 0 0 0 0 0 0 0 0 0

GEFSSGP_con_prob3kmehi_060.txt.gz
EHI
0 0 0 0 0 0 0 0 0 0 0 1 1 1 2 2 1 1 2 8 23 32 23 14 21 40 61 73 75 68 49 28 17 11 5 1 0 0 0 0 0 0 0 0 0 0 0 0 0
0 0 0 0 0 0 0 0 1 1 2 2 1 2 3 3 3 3 4 13 31 39 27 19 27 44 62 72 74 65 46 29 18 10 4 1 0 0 0 0 0 0 0 0 0 0 0 0 0
0 0 0 0 0 0 0 1 2 3 4 3 2 2 3 3 3 4 8 23 43 47 35 33 43 54 63 70 70 61 46 30 17 8 3 1 0 0 0 0 0 0 0 0 0 0 0 0 0
0 0 0 0 0 0 0 2 4 5 4 4 4 3 4 4 4 7 14 33 54 58 47 48 59 64 67 70 68 60 48 31 14 5 1 0 0 0 0 0 0 0 0 0 0 0 0 0 0
0 0 0 0 0 0 1 3 6 7 7 7 7 7 6 6 8 14 21 38 59 67 60 58 64 69 70 70 66 58 46 30 13 3 0 0 0 0 0 0 0 0 0 0 0 0 0 0 0
0 0 0 0 0 0 1 3 6 9 10 10 10 9 7 8 15 23 32 44 59 69 67 61 60 63 67 67 62 52 40 27 13 3 0 0 0 0 0 0 0 0 0 0 0 0 0 0 0
0 0 0 0 0 0 1 2 5 8 10 10 9 9 8 10 19 33 45 53 60 67 67 60 54 55 57 58 55 49 39 28 15 4 0 0 0 0 0 0 0 0 0 0 0 0 0 0 0
0 0 0 0 0 0 1 2 3 4 7 7 6 6 10 16 27 42 52 55 55 57 56 51 47 46 45 46 49 47 39 29 16 6 1 0 0 0 0 1 0 0 0 0 0 0 0 0 1
0 0 0 0 0 0 1 1 1 3 5 4 3 6 15 27 37 44 46 42 38 37 35 33 33 34 35 37 40 37 29 20 12 4 1 0 0 0 1 2 1 1 0 1 1 1 0 0 1
0 0 0 0 0 0 1 1 2 4 5 3 3 11 27 39 41 36 30 23 19 17 15 14 17 22 26 29 27 20 13 8 4 2 0 0 0 0 0 1 2 1 1 1 2 1 0 0 1
0 0 0 0 0 1 3 3 2 3 4 4 9 24 41 45 35 23 15 10 8 7 5 5 8 13 15 15 12 7 4 2 1 0 0 0 0 0 0 0 1 1 1 1 1 1 0 0 0
0 0 0 0 1 3 6 6 3 2 2 6 18 36 47 42 29 18 11 7 5 3 2 2 4 6 5 4 3 2 1 1 0 0 0 0 0 0 0 0 0 0 0 0 0 0 0 0 0
0 0 0 1 2 5 7 7 4 2 2 9 23 37 41 34 25 18 11 6 2 1 0 1 1 2 1 0 0 0 0 0 0 0 0 0 0 0 0 0 0 0 0 0 0 0 0 0 0
0 0 0 1 3 5 7 7 4 3 5 11 21 30 31 26 22 17 11 5 1 0 0 0 0 1 0 0 0 0 0 0 0 0 0 0 0 0 0 0 0 0 0 0 0 0 0 0 0
0 0 0 0 1 3 5 5 4 4 6 10 17 23 23 20 16 13 10 5 1 0 0 0 1 1 0 0 0 0 0 0 0 0 0 0 0 0 0 0 0 0 0 0 0 0 0 0 0
0 0 0 0 0 1 2 2 3 4 5 7 11 14 15 13 12 12 9 5 3 1 1 1 1 1 0 0 0 0 0 0 0 0 0 0 0 0 0 0 0 0 0 0 0 0 0 0 0
0 0 0 0 0 0 0 1 3 4 5 6 7 8 9 10 12 12 10 7 5 4 3 2 1 0 0 0 0 0 0 0 0 0 0 0 0 0 0 0 0 0 0 0 0 0 0 0 0
0 0 0 0 0 0 1 2 2 3 5 6 6 6 7 9 12 12 10 9 8 6 5 3 1 0 0 0 0 0 0 0 0 0 0 0 0 0 0 0 0 0 0 0 0 0 0 0 0
0 0 0 0 0 0 1 2 2 1 2 4 5 4 4 7 10 10 9 9 8 6 5 3 1 1 0 0 0 0 0 0 0 0 0 0 0 0 0 0 0 0 0 0 0 0 0 0 0
0 0 0 0 0 0 0 1 1 0 0 1 2 1 1 3 6 8 9 9 7 5 4 3 2 1 0 0 0 0 0 0 0 0 0 0 0 0 0 0 0 0 0 0 0 0 0 0 0
0 0 0 0 0 0 0 0 0 0 0 0 0 0 0 1 4 7 8 8 7 5 3 1 1 1 0 0 0 0 0 0 0 0 0 0 0 0 0 0 0 0 0 0 0 0 0 0 0
0 0 0 0 0 0 0 0 0 0 0 0 0 0 0 1 3 5 6 6 6 4 1 0 0 0 0 0 0 0 0 0 0 0 0 0 0 0 0 0 0 0 0 0 0 0 0 0 0
0 0 0 0 0 0 0 0 0 0 0 0 0 0 1 2 3 4 4 4 4 2 1 0 0 0 0 0 0 0 0 0 0 0 0 0 0 0 0 0 0 0 0 0 0 0 0 0 0
0 0 0 0 0 0 0 0 0 0 0 0 0 0 1 2 3 3 3 3 2 1 0 0 0 0 0 0 0 0 0 0 0 0 0 0 0 0 0 0 0 0 0 0 0 0 0 0 0
0 0 0 0 0 0 0 0 0 0 0 0 0 0 1 2 3 3 3 2 1 0 0 0 0 0 0 0 0 0 0 0 0 0 0 0 0 0 0 0 0 0 0 0 0 0 0 0 0
0 0 0 0 0 0 0 0 0 0 0 0 0 0 2 4 5 4 3 2 1 0 0 0 0 0 0 0 0 0 0 0 0 0 0 0 0 0 0 0 0 0 0 0 0 0 0 0 0
0 0 0 0 0 0 0 0 0 0 0 0 0 0 2 4 5 4 2 1 0 0 0 0 0 0 0 0 0 0 0 0 0 0 0 0 0 0 0 0 0 0 0 0 0 0 0 0 0
0 0 0 0 0 0 0 0 0 0 0 0 0 0 0 2 3 3 1 0 0 0 0 0 0 0 0 0 0 0 0 0 0 0 0 0 0 0 0 0 0 0 0 0 0 0 0 0 0
0 0 0 0 0 0 0 0 0 0 0 0 0 0 0 0 1 2 1 0 0 1 1 0 0 0 0 0 0 0 0 0 0 0 0 0 0 0 0 0 0 0 0 0 0 0 0 0 0
0 0 0 0 0 0 0 0 0 0 0 0 0 0 0 0 0 1 1 0 1 2 2 1 0 0 0 0 0 0 0 0 0 0 0 0 0 0 0 0 0 0 0 0 0 0 0 0 0

GEFSSGP_con_prob3kmehi_066.txt.gz
EHI
0 0 0 0 0 0 0 0 0 0 0 0 0 0 0 0 1 1 2 2 2 1 0 1 4 4 4 8 17 22 24 22 18 13 7 2 1 0 0 0 0 0 0 0 0 0 0 0 0
0 0 0 0 0 0 0 0 0 0 0 0 0 0 0 1 3 3 3 3 3 1 1 4 9 9 7 9 16 21 23 20 15 9 4 1 0 0 0 0 0 0 0 0 0 0 0 0 0
0 0 0 0 0 0 0 0 0 0 0 1 1 1 2 4 6 7 6 5 3 1 3 10 17 17 14 13 18 23 23 18 12 5 1 0 0 0 0 0 0 0 0 0 0 0 0 0 0
0 0 0 0 0 0 0 0 0 0 0 1 2 4 8 11 10 10 9 5 2 2 3 11 20 24 23 23 25 27 25 18 11 5 1 0 0 0 0 0 0 0 0 0 0 0 0 0 0
0 0 0 0 0 0 0 0 0 0 0 1 2 6 14 18 15 12 8 3 1 1 3 8 18 26 30 31 31 30 26 19 11 5 1 0 0 0 0 0 0 0 0 0 0 0 0 0 0
0 0 0 0 0 0 0 0 0 0 0 0 1 7 17 23 19 11 5 1 0 0 1 5 11 19 26 31 32 31 27 19 10 4 1 0 0 0 0 0 0 0 0 0 0 0 0 0 0
0 0 0 0 0 0 0 0 0 0 0 0 1 7 19 28 26 15 6 3 1 0 0 2 4 7 14 23 28 31 27 16 7 2 1 1 1 1 0 0 0 0 0 0 0 0 0 0 0
0 0 0 0 0 0 0 0 0 0 1 2 4 10 24 36 38 29 18 11 6 4 2 1 0 1 4 11 20 24 21 11 4 2 2 2 2 1 1 0 0 0 0 0 0 0 0 0 0
0 0 0 0 0 0 0 0 0 0 2 3 7 16 32 46 50 44 33 23 17 12 6 3 2 1 1 5 11 13 11 6 1 1 1 1 1 0 0 0 0 0 0 0 0 1 0 0 0
0 0 0 0 0 0 0 0 0 0 1 3 8 19 35 49 53 46 36 27 23 18 11 6 4 3 3 7 9 7 4 3 1 0 0 0 0 0 0 0 0 0 0 0 1 2 1 0 0
0 0 0 0 0 0 0 0 0 0 1 2 8 19 32 43 46 39 28 21 19 18 13 9 8 7 8 11 10 6 3 2 1 0 0 0 0 0 0 0 1 0 0 1 2 3 2 1 0
0 0 0 0 0 0 0 0 0 0 0 1 7 18 27 33 35 30 23 18 18 18 15 13 11 11 13 13 10 4 2 1 1 0 0 0 0 0 0 0 0 0 0 1 2 2 1 1 0
0 0 0 0 0 0 0 0 0 0 0 1 6 14 20 24 26 25 24 23 22 21 19 15 11 12 16 14 8 3 1 1 1 0 0 0 0 0 0 0 0 0 0 1 1 0 0 0 1
0 0 0 0 0 0 0 0 0 0 1 3 6 11 17 21 24 26 26 24 22 19 17 14 10 11 14 12 5 2 1 1 1 0 0 0 0 0 0 0 0 0 0 0 0 0 0 0 1
0 0 0 0 0 0 0 0 1 2 4 7 9 13 18 24 26 26 24 19 17 15 12 10 7 8 10 8 4 1 1 1 1 0 0 0 0 0 0 0 0 0 0 0 0 0 0 0 1
0 0 0 0 0 0 0 1 2 4 7 10 12 15 19 23 25 23 19 17 16 14 11 8 6 8 10 8 5 2 1 0 0 0 0 0 0 0 0 0 0 0 0 0 0 0 0 0 0
0 0 0 0 0 0 0 1 3 5 8 9 10 13 17 17 17 18 18 18 17 14 11 10 9 10 11 9 5 2 0 0 0 0 0 0 0 0 0 0 0 0 0 0 0 0 0 0 0
0 0 0 0 0 0 0 0 2 5 8 7 7 10 12 10 8 10 15 16 15 13 13 12 12 12 10 6 3 1 0 0 0 0 0 0 0 0 0 0 0 0 0 0 0 0 0 0 0
0 0 0 0 0 0 0 0 1 4 6 7 7 7 6 4 2 3 7 10 11 13 15 14 12 11 7 3 1 1 1 1 0 0 0 0 0 0 0 0 0 0 0 0 0 0 0 0 0
0 0 0 0 0 0 0 0 1 3 4 5 6 5 2 1 0 1 3 7 9 11 14 13 10 7 4 1 0 1 1 1 0 0 0 0 0 0 0 0 0 0 0 0 0 0 0 0 0
0 0 0 0 0 0 0 0 0 1 2 4 5 4 2 1 1 2 3 6 7 8 9 8 7 6 3 1 1 0 0 0 0 0 0 0 0 0 0 0 0 0 0 0 0 0 0 0 0
0 0 0 0 0 0 0 0 0 0 1 3 4 5 4 3 3 2 3 3 4 5 6 4 4 6 5 3 2 1 0 0 0 0 0 0 0 0 0 0 0 0 0 0 0 0 0 0 0
0 0 0 0 0 0 0 0 0 0 0 1 3 5 5 4 3 3 3 1 1 3 4 3 3 5 6 4 3 2 1 0 0 0 0 0 0 0 0 0 0 0 0 0 0 0 0 0 0
0 0 0 0 0 0 0 0 0 0 0 0 1 3 5 4 4 5 5 3 2 2 3 3 3 5 6 5 4 3 2 1 0 0 0 0 0 0 0 0 0 0 0 0 0 0 0 0 0
0 0 0 0 0 0 0 0 0 0 0 0 0 2 4 4 5 8 9 7 4 3 4 4 4 5 6 6 6 5 4 2 0 0 0 0 0 0 0 0 0 0 0 0 0 0 0 0 0
0 0 0 0 0 0 0 0 0 0 0 0 0 1 2 3 5 8 10 8 6 6 6 6 6 7 9 9 9 9 7 3 0 0 0 0 0 0 0 0 0 0 0 0 0 0 0 0 0
0 0 0 0 0 0 0 0 0 0 0 0 1 2 2 2 4 7 9 9 8 7 7 7 8 12 14 13 12 13 13 9 5 2 1 1 2 1 0 0 0 0 0 0 0 0 0 0 0
0 0 0 0 0 0 0 0 0 0 0 0 1 2 2 2 2 5 8 10 9 7 6 7 10 15 16 15 14 15 17 16 13 10 7 6 6 4 1 0 0 0 0 0 0 0 0 0 0
0 0 0 0 0 0 0 0 0 0 0 0 0 1 1 1 1 2 5 8 9 7 6 7 10 13 16 17 17 18 19 19 19 19 17 15 12 7 3 1 1 1 1 1 1 0 0 0 0
0 0 0 0 0 0 0 0 0 0 0 0 0 0 0 1 0 1 3 7 9 8 7 8 10 12 15 20 23 22 20 20 21 22 23 21 16 10 5 2 2 2 2 2 2 1 0 0 0

GEFSSGP_con_prob3kmehi_072.txt.gz
EHI
1 6 12 11 9 11 7 1 1 2 1 0 0 2 6 13 16 13 17 41 63 53 30 19 11 4 1 0 1 2 2 1 0 0 0 0 0 0 0 0 0 0 0 0 0 0 0 0 0
0 4 9 9 6 6 3 2 3 3 2 1 1 5 14 22 22 17 26 49 57 39 21 15 11 4 0 0 0 1 1 0 0 0 0 0 0 0 0 0 0 0 0 0 0 0 0 0 0
0 2 3 4 2 1 0 2 4 4 1 1 3 13 25 31 28 26 36 48 43 26 15 14 11 4 0 0 0 0 0 1 1 0 0 0 0 0 0 0 0 0 0 0 0 0 0 0 0
1 0 0 0 0 0 0 2 4 3 1 2 8 25 38 35 30 31 33 34 30 21 14 13 10 4 1 0 0 0 1 2 2 1 0 0 0 0 0 0 0 0 0 0 0 0 0 0 0
1 1 1 0 0 0 0 1 3 3 3 4 15 35 44 35 28 26 21 23 25 21 13 9 8 5 1 0 0 0 1 2 3 1 0 0 0 0 0 0 0 0 0 0 0 0 0 0 0
1 0 0 0 0 1 1 1 3 4 4 7 17 34 41 31 21 17 16 21 28 26 16 9 8 6 3 1 0 0 1 2 3 2 0 0 1 1 1 0 0 0 0 0 0 0 0 0 0
0 0 0 0 0 1 2 2 2 3 3 7 15 30 39 30 17 12 15 25 36 35 22 9 5 5 3 1 0 0 1 3 3 1 0 0 1 2 1 0 0 0 0 0 0 0 0 0 0
0 0 0 0 0 1 2 1 1 1 3 8 17 33 45 37 21 16 20 33 48 45 26 8 3 2 1 1 1 1 2 3 2 1 0 0 1 1 1 0 0 0 0 0 0 0 0 0 0
0 0 0 0 0 0 0 0 0 0 4 13 27 44 50 40 27 24 30 44 58 53 31 12 5 2 0 0 1 2 2 2 2 1 0 0 0 0 1 2 1 0 1 1 1 0 0 0 0
0 0 0 0 0 0 0 1 1 1 7 22 41 53 49 37 31 30 37 50 61 58 43 27 17 11 9 7 4 1 1 1 1 1 1 0 0 1 2 3 2 1 2 2 1 0 0 0 0
0 0 0 0 0 0 0 1 2 4 11 26 45 54 48 37 32 31 36 48 61 63 56 47 42 38 33 22 9 3 3 3 4 5 4 3 2 2 3 4 3 2 1 1 0 0 0 0 0
0 0 0 0 0 0 1 1 2 7 14 23 35 46 46 37 31 33 39 51 65 70 67 67 69 70 63 43 20 12 11 8 7 8 7 5 3 3 3 4 4 3 1 1 1 1 1 1 0
0 0 0 0 0 1 1 1 3 9 15 18 24 36 43 38 34 39 50 62 75 79 79 82 85 84 77 61 38 25 20 13 9 8 6 3 2 1 1 3 3 3 4 4 3 2 1 1 0
0 0 0 0 0 2 2 1 3 10 17 18 23 32 38 39 39 48 60 71 79 84 86 87 85 80 74 64 48 30 18 13 10 6 3 1 0 0 0 1 1 2 4 6 5 3 1 0 0
0 0 0 0 0 1 2 3 6 13 19 23 25 29 34 37 41 51 63 70 77 83 84 79 72 68 63 54 39 23 12 9 8 5 1 0 0 0 0 0 0 1 2 3 3 1 0 0 0
0 0 0 0 0 1 3 7 11 15 20 26 27 26 30 34 39 47 56 64 72 76 74 67 60 57 53 42 28 16 10 7 5 3 1 0 0 0 0 1 0 0 0 0 0 0 0 0 0
0 0 0 0 0 0 2 9 15 16 20 26 28 26 28 32 36 43 49 55 62 65 63 58 56 51 43 34 25 16 11 7 2 1 1 0 0 0 0 0 0 0 0 1 1 0 0 0 0
0 0 0 0 0 0 2 8 16 18 19 25 30 28 28 30 34 39 43 47 52 54 52 51 49 44 36 29 22 15 10 6 2 0 1 0 0 0 0 0 0 0 0 1 1 0 0 0 0
0 0 0 0 0 0 2 7 15 17 16 23 31 31 29 29 31 35 38 41 45 46 45 43 39 34 29 23 18 12 7 3 1 0 1 0 0 0 0 0 0 0 0 1 1 0 0 0 0
0 0 0 0 0 0 2 8 14 15 13 18 28 30 29 29 30 32 33 34 37 39 39 38 33 26 21 18 13 8 4 2 1 1 1 0 0 0 0 0 0 0 0 0 0 0 0 0 0
0 0 0 0 0 0 2 8 13 12 10 14 20 24 25 27 29 30 29 29 30 31 31 31 30 23 19 16 10 5 3 3 4 4 2 1 0 0 0 0 0 0 0 0 0 0 0 0 0
0 0 0 0 0 0 1 5 9 9 8 11 15 16 19 23 25 27 27 25 24 24 22 24 27 26 22 16 9 5 4 4 6 8 7 3 0 0 0 0 0 0 0 0 0 0 0 0 0
0 0 0 0 0 0 0 2 5 5 5 9 12 13 17 20 21 24 25 23 22 23 22 24 30 32 26 18 11 6 4 4 6 10 11 6 2 1 0 0 1 1 0 0 0 0 0 0 0
0 0 0 0 0 0 0 1 2 2 3 7 9 11 16 21 21 21 21 21 23 25 26 30 36 38 31 22 17 12 7 5 7 11 11 6 3 4 4 4 3 3 1 0 0 0 0 0 0
0 0 0 1 0 0 0 0 0 1 1 3 6 9 12 18 21 20 19 19 23 28 31 36 42 42 35 28 25 20 12 7 7 8 6 4 2 8 14 14 9 5 2 1 0 0 0 0 0
0 0 0 0 0 0 0 0 0 0 0 0 3 6 7 11 18 21 19 20 23 28 33 40 45 45 39 33 31 28 20 10 6 5 4 2 1 10 23 24 15 8 3 1 0 0 0 0 0
0 0 0 0 0 0 0 0 0 0 0 0 1 2 4 7 14 20 22 23 25 30 37 45 51 51 43 35 31 31 26 16 8 7 5 2 1 10 24 26 17 10 5 2 0 0 0 0 0
0 0 0 0 0 0 0 0 1 1 0 0 0 2 4 7 12 19 23 27 31 35 43 52 57 56 46 35 29 30 30 23 14 11 8 5 5 14 25 27 20 13 9 6 4 1 0 1 1
0 0 0 0 0 0 0 0 0 1 1 0 0 2 4 6 8 13 21 29 34 39 47 54 57 55 46 35 31 32 33 30 24 20 18 16 18 26 34 33 26 18 13 12 10 5 2 3 4
0 0 0 0 0 0 0 0 0 0 1 0 0 1 3 4 5 9 19 30 35 40 48 54 54 51 43 36 35 37 37 36 32 29 27 27 30 37 43 40 31 21 15 15 15 10 4 5 6

GEFSSGP_con_prob3kmehi_078.txt.gz
EHI
3 1 0 0 0 0 0 0 0 1 2 7 17 23 19 10 5 6 15 33 52 55 42 39 40 29 14 5 1 0 0 0 0 0 0 0 0 0 0 0 0 0 0 0 0 0 0 0 0
1 0 0 0 0 0 0 0 0 2 5 13 26 31 24 14 9 11 22 40 57 58 46 43 46 35 17 7 2 0 0 0 0 0 0 0 0 0 0 0 0 0 0 0 0 0 0 0 0
0 0 0 1 1 1 0 0 2 6 13 23 35 37 27 17 15 19 29 47 60 58 51 51 53 41 21 8 3 1 0 0 0 0 0 0 0 0 0 0 0 0 0 0 0 0 0 0 0
0 0 0 1 2 1 0 0 3 10 23 36 44 41 28 20 24 33 42 52 58 57 53 55 55 42 21 8 3 1 0 0 0 0 0 0 0 0 0 0 0 0 0 0 0 0 0 0 0
0 0 0 0 1 1 1 1 5 16 32 48 54 46 32 28 39 52 56 57 60 57 52 51 49 38 20 7 2 0 0 0 0 0 0 0 0 0 0 0 0 0 0 0 0 0 0 0 0
0 0 0 0 0 0 1 3 8 20 36 51 56 48 35 36 51 61 60 58 60 58 50 43 39 29 17 7 2 0 0 0 0 0 0 0 0 0 0 0 0 0 0 0 0 0 0 0 1
0 0 0 0 0 1 2 4 9 20 33 42 50 47 38 41 53 58 56 54 55 56 50 40 29 19 10 5 1 0 0 0 0 0 0 0 0 0 0 0 0 0 0 0 0 0 0 1 2
0 0 0 0 1 2 3 3 9 20 31 38 44 43 40 45 55 57 53 49 48 47 43 35 23 12 5 2 0 0 0 0 0 0 0 0 0 0 0 0 0 0 0 0 0 0 0 1 2
0 0 0 0 1 2 3 3 10 24 37 44 45 43 46 54 60 62 57 50 42 35 30 24 17 9 4 1 0 0 0 0 0 0 0 0 0 0 0 0 0 0 0 0 0 0 0 0 1
0 0 0 0 1 2 2 2 11 27 42 49 49 50 57 62 65 66 63 52 38 27 20 15 12 9 5 2 1 0 0 0 0 0 0 0 0 0 0 0 0 0 0 0 0 0 0 0 0
0 0 0 0 1 1 1 2 10 25 38 46 51 56 62 64 65 66 63 52 36 24 16 11 9 9 6 3 1 0 0 0 0 0 0 0 0 0 0 0 0 0 0 0 0 0 0 0 0
0 0 0 0 0 0 1 4 10 19 32 43 49 54 58 61 63 63 60 50 38 26 17 11 9 7 5 3 1 0 0 0 0 0 0 0 0 0 0 0 0 0 0 0 0 0 0 0 0
0 0 0 0 0 0 2 7 12 20 34 45 47 48 50 54 59 61 58 51 41 30 21 16 11 7 5 3 2 0 0 0 0 0 0 0 0 0 0 0 0 0 0 0 0 0 0 0 0
0 0 0 0 0 1 3 7 15 28 43 50 48 44 44 47 53 56 54 48 40 32 26 23 18 13 8 5 3 1 0 0 0 0 0 0 0 0 0 0 0 0 0 0 0 0 0 0 0
0 0 0 0 0 1 2 6 15 31 45 49 46 43 41 42 45 46 45 41 37 33 30 27 23 17 11 7 4 2 1 0 0 0 0 0 0 0 0 0 0 0 0 0 0 0 0 0 0
0 0 0 0 0 0 1 4 12 27 40 44 42 39 38 37 35 32 32 36 38 35 31 28 25 19 12 7 4 3 2 1 0 0 0 0 0 0 0 0 0 0 0 0 0 0 0 0 0
0 0 0 0 0 0 1 5 13 24 35 38 35 31 30 30 27 23 24 30 33 30 27 27 25 19 12 6 4 3 2 1 0 0 0 0 0 0 0 0 0 0 0 0 0 0 0 0 0
0 0 0 0 0 1 3 10 17 23 28 29 26 24 23 24 22 19 19 22 23 22 23 25 23 17 12 7 4 3 1 0 0 0 0 0 0 0 0 0 0 0 0 0 0 0 0 0 0
0 0 0 0 0 1 5 11 15 17 19 19 18 19 22 23 20 17 16 16 16 16 19 22 21 16 11 7 4 2 1 0 0 0 0 0 0 0 0 0 0 0 0 0 0 0 0 0 0
0 0 0 0 1 2 3 6 8 9 11 10 10 14 20 22 20 17 16 16 15 14 16 19 19 14 8 5 4 2 1 0 0 0 0 0 0 0 0 0 0 0 0 0 0 0 0 0 0
0 0 0 0 1 1 1 2 3 6 7 6 6 10 16 21 21 20 18 17 16 15 15 16 15 12 8 5 3 1 0 0 0 0 0 0 0 0 0 0 0 0 0 0 0 0 0 0 0
0 0 0 0 0 0 0 0 2 4 5 6 5 8 12 16 20 21 19 18 17 15 13 11 10 8 6 4 2 1 0 0 0 0 0 0 0 0 0 0 0 0 0 0 0 0 0 0 0
0 0 0 0 0 0 0 0 0 1 3 5 6 6 7 11 17 19 18 17 16 14 10 7 5 4 2 1 1 0 0 0 0 0 0 0 0 0 0 0 0 0 0 0 0 0 0 0 0
0 0 0 0 0 0 0 0 0 0 1 3 5 4 4 7 15 18 16 15 15 13 9 5 3 2 1 0 0 0 0 0 0 0 0 0 0 0 0 0 0 0 0 0 0 0 0 0 0
0 0 0 0 0 0 0 0 0 0 0 1 3 2 2 7 13 17 16 16 16 15 12 9 6 4 2 0 0 0 0 0 0 0 0 0 0 0 0 0 0 0 0 0 0 0 0 0 0
0 0 0 0 0 0 0 0 0 0 0 1 2 2 3 7 12 15 15 16 17 16 16 15 11 7 3 1 0 0 0 0 0 0 0 0 0 0 0 0 0 0 0 0 0 0 0 0 0
0 0 0 0 0 0 0 0 0 0 0 1 2 2 3 6 10 13 14 16 16 17 19 19 16 11 6 3 1 0 0 0 0 0 0 0 0 0 0 0 0 0 0 0 0 0 0 0 0
0 0 0 0 0 0 0 0 0 0 0 1 1 2 2 4 8 10 13 15 16 17 19 20 17 13 8 5 2 0 0 0 0 0 0 0 0 0 0 0 0 0 0 0 0 0 0 0 0
1 0 0 0 0 0 0 0 0 0 0 0 0 0 1 4 6 9 12 14 14 16 19 19 17 13 10 7 3 1 1 2 1 0 0 0 0 0 0 0 0 0 0 0 0 0 0 0 0
1 1 0 0 0 0 0 0 0 0 0 0 0 0 1 3 4 8 12 12 12 15 18 20 17 14 11 8 4 2 2 3 2 1 0 0 0 0 0 0 0 0 0 0 0 0 0 0 0

GEFSSGP_con_prob3kmehi_084.txt.gz
EHI
0 0 0 0 0 0 0 0 0 0 0 1 3 4 3 3 2 2 5 15 33 40 30 26 36 46 50 47 38 25 17 13 12 10 5 1 0 0 0 0 0 0 0 0 0 0 0 0 0
0 0 0 0 0 0 0 0 0 0 1 4 7 6 5 5 6 7 13 26 42 45 33 28 36 45 47 42 31 21 13 9 8 7 4 1 0 0 0 0 0 0 0 0 0 0 0 0 0
0 0 0 0 0 0 0 0 2 2 3 8 11 9 7 7 11 18 29 43 52 49 37 31 38 43 41 35 25 14 7 4 5 5 3 1 0 0 0 0 0 0 0 0 0 0 0 0 0
0 0 0 0 0 0 0 1 5 8 7 10 14 13 9 11 19 34 49 57 58 53 41 37 41 41 36 32 22 10 3 2 3 3 2 1 0 0 0 0 0 0 0 0 0 0 0 0 0
0 0 0 0 0 0 0 3 9 12 12 16 21 20 15 19 34 51 61 65 65 61 51 46 45 39 32 29 20 9 2 1 1 1 1 0 0 0 0 0 0 0 0 0 0 0 0 0 0
0 0 0 0 0 0 0 4 11 16 19 26 32 29 23 31 49 61 65 66 68 69 65 59 49 35 27 24 17 8 2 0 0 0 0 0 0 0 0 0 0 0 0 0 0 0 0 0 0
0 0 0 0 0 0 1 4 12 20 27 35 40 33 28 40 56 64 66 69 72 75 76 69 55 37 24 18 12 6 2 0 0 0 0 0 0 0 0 0 0 0 0 0 0 0 0 0 0
0 0 0 0 0 1 2 5 15 27 35 41 40 30 29 46 61 66 69 72 75 78 78 74 65 48 30 16 9 3 0 0 0 0 0 0 0 0 0 0 0 0 0 0 0 0 0 0 0
0 0 0 0 1 2 3 7 21 35 44 47 41 33 39 58 68 69 71 71 72 72 70 70 68 56 37 20 9 4 1 0 0 0 0 0 0 0 0 0 0 0 0 0 0 0 0 0 0
0 0 0 0 1 1 1 8 25 41 48 48 47 48 58 70 72 68 67 67 65 63 60 59 59 51 36 21 13 7 3 0 0 0 0 0 0 0 0 0 0 0 0 0 0 0 1 2 1
0 0 0 0 0 0 1 8 25 39 40 42 50 61 70 73 69 62 59 59 58 57 54 50 47 40 30 21 16 10 4 0 0 0 0 0 0 0 0 0 0 0 0 0 0 1 2 3 2
0 0 0 0 0 0 1 8 21 28 27 33 50 65 71 70 63 56 52 50 51 52 49 45 40 33 25 21 18 11 4 0 0 0 0 0 0 0 0 0 0 0 0 0 0 1 2 2 1
0 0 0 0 0 1 2 7 13 17 21 36 55 66 69 65 59 52 47 43 41 41 40 39 35 26 20 19 17 10 4 1 0 0 0 0 0 0 0 0 0 0 0 0 0 0 1 1 0
0 0 0 0 0 1 2 4 8 15 30 48 60 64 62 58 55 49 40 32 28 27 28 29 26 17 12 13 12 8 3 1 0 0 0 0 0 0 0 0 0 0 0 0 0 0 0 0 0
0 0 0 0 0 0 1 2 6 18 37 51 55 54 49 46 45 42 32 21 16 15 16 17 16 11 7 6 5 4 2 1 0 0 0 0 0 0 0 0 0 0 0 0 0 0 0 0 0
0 0 0 0 0 0 0 1 6 20 36 44 43 41 36 33 32 30 25 16 10 7 7 9 10 7 3 1 1 1 1 0 0 0 0 0 0 0 0 0 0 0 0 0 0 0 0 0 0
0 0 0 0 0 0 0 2 9 21 30 32 31 29 27 23 21 20 18 14 7 3 4 6 7 6 2 0 0 0 0 0 0 0 0 0 0 0 0 0 0 0 0 0 0 0 0 0 0
0 0 0 0 0 0 1 3 10 18 22 22 22 21 19 18 15 15 15 13 6 3 4 6 7 5 2 0 0 0 0 0 0 0 0 0 0 0 0 0 0 0 0 0 0 0 0 0 0
0 0 0 0 0 0 1 4 8 12 13 14 15 14 13 12 11 11 14 13 8 5 5 5 5 3 1 1 0 0 0 0 0 0 0 0 0 0 0 0 0 0 0 0 0 0 0 0 0
0 0 0 0 0 0 1 2 5 7 7 8 10 9 7 7 8 10 13 14 11 7 6 4 3 2 1 1 0 0 0 0 0 0 0 0 0 0 0 0 0 0 0 0 0 0 0 0 0
0 0 0 0 0 0 0 1 2 3 3 4 5 4 4 4 6 8 11 12 12 9 5 3 3 2 1 0 0 0 0 0 0 0 0 0 0 0 0 0 0 0 0 0 0 0 0 0 0
0 0 0 0 0 0 0 0 0 1 1 1 2 2 3 3 4 5 7 9 9 8 6 4 3 1 0 0 0 0 0 0 0 0 0 0 0 0 0 0 0 0 0 0 0 0 0 0 0
0 0 0 0 0 0 0 0 0 0 0 0 1 2 3 2 2 2 3 4 6 7 7 6 5 1 0 0 0 0 0 0 0 0 0 0 0 0 0 0 0 0 0 0 0 0 0 0 0
0 0 0 0 0 0 0 0 0 0 0 0 1 3 3 3 2 2 2 3 4 5 6 7 5 2 0 0 0 0 0 0 0 0 0 0 0 0 0 0 0 0 0 0 0 0 0 0 0
0 0 0 0 0 0 0 0 0 0 0 0 1 2 3 3 3 3 4 4 3 3 4 5 4 2 0 0 0 0 0 0 0 0 0 0 0 0 0 0 0 0 0 0 0 0 0 0 0
0 0 0 0 0 0 0 0 0 0 0 0 0 1 1 2 2 3 4 4 3 3 4 5 4 2 1 0 0 0 0 0 0 0 0 0 0 0 0 0 0 0 0 0 0 0 0 0 0
0 0 0 0 0 0 0 0 0 0 0 0 0 0 0 0 1 1 1 2 2 4 6 6 4 3 1 0 0 0 0 0 0 0 0 0 0 0 0 0 0 0 0 0 0 0 0 0 0
0 0 0 0 0 0 0 0 0 0 0 0 0 0 0 0 0 0 0 0 1 2 5 6 5 4 1 0 0 0 0 0 0 0 0 0 0 0 0 0 0 0 0 0 0 0 0 0 0
0 0 0 0 0 0 0 0 0 0 0 0 0 0 0 0 0 0 0 0 0 0 2 4 5 3 1 0 0 0 0 0 0 0 0 0 0 0 0 0 0 0 0 0 0 0 0 0 0
0 0 0 0 0 0 0 0 0 0 0 0 0 0 0 0 0 0 0 0 0 0 1 3 5 3 1 0 0 0 0 0 0 0 0 0 0 0 0 0 0 0 0 0 0 0 0 0 0

GEFSSGP_con_prob3kmehi_090.txt.gz
EHI
0 0 0 0 0 0 0 0 0 0 0 0 0 0 0 0 1 1 2 6 15 25 25 17 11 9 8 13 19 21 18 13 7 2 0 0 0 0 0 0 0 0 0 0 0 0 0 0 0
0 0 0 0 0 0 0 0 0 0 0 0 0 0 0 1 3 4 5 10 17 25 28 21 15 11 9 12 17 18 14 9 5 2 0 0 0 0 0 0 0 0 0 0 0 0 0 0 0
0 0 0 0 0 0 0 0 0 0 1 1 0 0 1 4 6 8 13 17 20 26 31 31 22 13 10 12 15 14 10 7 5 2 0 0 0 0 0 0 0 0 0 0 0 0 0 0 0
0 0 0 0 0 0 0 0 0 0 2 3 2 2 5 8 11 16 24 24 23 25 29 33 26 15 12 12 12 11 9 7 5 3 1 0 0 0 0 0 0 0 0 0 0 0 0 0 0
0 0 0 0 0 0 0 0 0 0 2 4 3 4 10 16 23 31 34 29 24 19 22 29 27 19 13 10 8 8 8 6 5 3 1 0 0 0 0 0 0 0 0 0 0 0 0 0 0
0 0 0 0 0 0 0 0 0 0 1 2 2 5 16 31 43 47 41 29 19 14 19 25 24 18 13 8 5 5 5 4 3 1 0 0 0 0 0 0 0 0 0 0 0 0 0 0 0
0 0 0 0 0 0 0 1 0 0 1 2 2 6 25 49 61 58 45 28 16 12 18 22 17 11 9 7 4 4 4 3 2 1 1 0 0 0 0 0 0 0 0 0 0 0 0 0 0
0 0 0 0 0 0 0 0 0 0 3 6 6 9 33 63 74 68 56 40 25 17 18 18 11 6 4 3 3 4 4 3 3 3 2 1 0 0 0 0 0 0 0 0 0 0 0 0 0
0 0 0 0 0 0 0 0 1 2 6 11 14 22 47 73 81 77 71 61 46 31 23 19 13 7 3 2 2 3 3 3 3 3 2 1 0 0 0 0 0 0 0 0 0 0 0 0 0
0 0 0 0 0 0 0 1 2 4 6 12 24 43 66 81 83 80 76 71 61 46 32 23 16 11 7 4 4 4 3 2 2 3 3 1 0 0 0 0 0 0 0 0 0 0 0 0 0
0 0 0 0 0 0 0 1 2 3 5 11 28 55 76 83 81 76 71 68 62 51 38 26 21 18 14 10 10 9 6 2 1 2 3 2 1 0 0 0 0 0 0 0 0 0 0 0 0
0 0 0 0 0 0 0 0 1 2 4 11 28 55 74 78 75 71 66 62 57 49 39 31 29 29 26 22 17 12 6 2 1 1 2 2 2 1 1 1 1 0 0 0 0 0 0 0 0
0 0 0 0 0 0 1 0 1 3 4 12 30 52 66 69 67 65 62 60 56 50 41 37 37 39 40 35 24 13 6 2 1 0 0 1 2 2 2 2 1 0 0 0 0 0 0 0 0
0 0 0 0 0 0 0 1 2 3 5 16 34 49 58 61 60 60 61 60 56 51 45 42 42 43 43 36 26 15 7 3 1 0 0 1 2 3 2 2 1 0 0 0 0 0 0 0 0
0 0 0 0 0 0 0 2 5 5 8 19 34 43 49 53 53 54 55 53 49 46 45 43 41 40 38 30 22 16 9 5 2 1 1 1 2 3 3 2 0 0 0 0 0 0 0 0 0
0 0 0 0 0 0 0 4 9 7 9 19 29 34 38 43 44 43 43 39 36 37 39 39 36 35 34 31 24 15 10 7 4 3 2 1 2 3 2 1 0 0 0 0 0 0 0 0 0
0 0 0 0 0 0 0 5 9 6 7 16 23 26 29 32 34 32 30 27 27 29 31 32 33 34 34 33 28 17 11 8 5 3 2 2 3 3 1 0 0 0 0 0 0 0 0 0 0
0 0 0 0 0 0 0 4 7 6 6 14 19 21 23 25 26 25 23 21 23 25 26 28 31 35 36 33 27 19 12 8 3 1 1 2 2 2 1 0 0 0 0 0 0 0 0 0 0
0 0 0 0 0 0 0 2 6 6 8 12 17 19 20 20 21 22 22 21 22 24 24 24 25 29 34 30 25 19 13 6 2 1 0 1 1 1 0 0 0 0 0 0 0 0 0 0 0
0 0 0 0 0 0 1 2 4 7 8 9 12 14 15 16 19 23 24 23 23 21 20 19 18 20 23 25 23 19 13 6 2 2 1 0 0 0 0 0 0 0 0 0 0 0 0 0 0
0 0 0 0 0 0 1 2 5 8 9 7 7 8 9 11 16 22 23 22 20 17 15 13 12 13 15 17 17 14 9 4 2 3 2 1 0 0 0 0 0 0 0 0 0 0 0 0 0
0 0 0 0 0 0 0 1 4 7 9 9 8 6 5 6 10 16 18 15 14 13 11 10 10 11 12 12 10 6 4 2 2 3 3 1 0 0 0 0 0 0 0 0 0 0 0 0 0
0 0 0 0 0 0 0 0 1 4 7 9 9 7 6 6 6 9 11 10 10 9 7 8 9 10 11 9 5 3 2 1 1 2 3 2 0 0 0 0 0 0 0 0 0 0 0 0 0
0 0 0 0 0 0 0 0 0 1 3 5 7 7 8 9 7 7 8 9 9 8 6 6 8 9 8 5 2 1 1 1 1 1 2 1 0 0 0 0 0 0 0 0 0 0 0 0 0
0 0 0 0 0 0 0 0 0 0 1 2 4 6 9 11 10 8 7 8 9 8 8 8 7 6 5 2 0 0 0 0 0 1 1 1 0 0 0 0 0 0 0 0 0 0 0 0 0
0 0 0 0 0 0 0 0 0 0 0 0 3 6 9 12 12 9 8 7 7 7 8 8 6 5 3 1 0 0 0 0 1 1 1 0 0 0 1 1 1 1 0 0 0 0 0 0 0
0 0 0 0 0 0 0 0 1 1 0 1 4 7 10 12 12 11 9 7 5 5 6 5 4 3 2 1 0 1 0 0 1 1 1 0 0 0 1 2 2 2 1 1 0 0 0 0 0
0 0 0 0 0 0 0 0 1 1 2 3 6 9 12 13 12 11 10 8 6 5 5 4 3 4 3 2 1 1 1 2 3 2 2 1 1 0 1 1 2 2 2 1 0 0 0 0 0
0 0 0 0 0 0 0 0 0 1 4 6 9 13 16 15 13 11 10 9 7 5 4 3 4 5 5 4 3 2 2 4 5 5 3 3 2 0 0 0 1 1 2 1 1 0 0 0 0
0 0 0 0 0 0 0 0 0 1 4 6 10 17 20 18 14 11 10 10 9 6 4 3 4 5 7 7 5 4 4 5 6 5 5 4 3 1 0 0 1 2 2 2 2 1 0 0 0

GEFSSGP_con_prob3kmehi_096.txt.gz
EHI
7 16 30 32 27 17 5 0 0 0 0 0 0 1 3 4 2 3 17 49 78 79 68 66 64 49 27 12 5 2 1 0 0 0 0 0 0 0 0 0 0 0 0 0 0 0 0 0 0
6 14 22 22 16 8 2 0 0 0 0 0 0 1 3 4 4 7 25 58 77 70 59 62 63 50 30 16 6 1 0 0 0 0 0 0 0 0 0 0 0 0 0 0 0 0 0 0 0
5 9 11 11 7 2 0 0 0 0 0 0 0 3 6 6 6 14 35 64 74 62 56 63 61 47 30 17 7 2 0 0 0 0 1 1 1 0 0 0 0 0 0 0 0 0 0 0 0
4 4 4 4 3 1 0 0 0 0 0 0 2 9 14 13 13 23 39 60 70 63 59 62 57 43 26 13 6 3 1 0 0 1 2 2 2 1 0 0 0 0 0 0 0 0 0 0 0
3 2 1 1 0 0 0 0 0 0 0 0 4 16 26 25 25 30 38 56 69 68 61 56 50 40 23 11 6 4 3 1 0 1 2 2 2 1 0 1 1 0 0 0 0 0 0 0 0
1 2 1 0 0 0 0 0 0 0 0 0 4 20 36 38 34 32 36 55 70 73 62 49 42 34 19 9 6 5 3 1 0 0 1 1 1 0 1 2 2 1 0 0 0 0 0 0 0
0 1 1 0 0 0 0 0 0 0 1 1 4 22 45 50 39 31 36 54 72 76 61 41 32 25 14 7 5 4 3 1 0 0 0 0 0 1 2 2 2 1 0 0 0 0 0 0 0
0 0 0 0 0 0 0 0 0 1 2 3 6 24 52 58 45 35 38 54 72 75 56 34 24 19 10 4 3 3 2 1 0 0 0 0 0 1 1 1 1 0 0 0 0 0 0 0 0
0 0 0 0 0 0 0 0 0 1 4 7 13 34 57 63 55 47 47 59 73 72 55 35 25 18 8 3 1 1 1 0 0 0 0 0 0 0 1 2 2 1 0 0 0 0 0 0 0
0 0 0 0 0 0 0 0 0 1 5 10 24 47 64 68 64 59 60 66 72 71 57 44 33 19 8 6 4 1 0 0 0 0 0 0 0 2 4 4 3 1 0 0 0 0 0 0 0
0 0 0 0 0 0 0 0 0 1 4 11 29 54 69 71 68 65 65 69 70 68 60 52 42 25 15 15 9 3 2 1 1 1 1 1 1 4 7 6 3 1 1 1 0 0 0 0 0
0 0 0 0 0 0 0 0 1 2 4 10 26 51 68 71 67 61 62 67 68 66 62 59 52 40 35 31 18 8 5 4 5 7 4 2 3 5 7 6 4 2 2 2 1 0 0 0 0
0 0 0 0 0 0 0 1 2 4 7 11 25 47 64 70 66 61 63 68 69 67 65 66 63 59 58 50 31 16 10 8 13 15 9 5 5 7 9 9 6 4 4 4 2 1 0 0 0
0 0 0 0 0 0 0 0 3 7 9 14 28 46 62 69 67 66 70 72 73 71 70 69 67 67 67 58 40 23 12 13 19 19 12 8 10 14 16 12 7 5 6 5 3 2 1 0 0
0 0 0 0 0 0 0 1 6 11 13 18 29 44 60 69 68 69 74 75 74 74 71 65 61 63 64 56 42 25 14 16 22 22 17 14 16 18 17 12 6 5 6 5 3 1 0 0 0
0 0 0 0 0 0 0 2 8 12 14 21 32 45 59 68 68 68 72 73 72 70 67 59 56 58 60 55 45 31 23 24 29 28 22 19 18 16 11 6 5 4 4 4 2 0 0 0 0
0 0 0 0 0 0 0 3 8 11 13 21 36 50 60 66 65 66 69 70 68 65 62 57 57 59 57 55 51 43 38 37 35 32 27 22 17 11 6 4 6 5 3 3 2 1 1 0 0
0 0 0 0 0 0 0 3 9 12 13 23 40 55 62 64 63 65 66 64 61 60 57 55 57 60 56 53 53 51 46 42 37 34 30 22 14 8 4 5 7 5 2 2 3 2 1 1 1
0 0 0 0 0 0 0 4 11 16 16 23 39 54 60 61 63 65 63 55 51 52 52 52 53 55 53 52 54 52 47 40 35 32 27 19 12 8 4 4 6 5 3 3 3 2 1 0 0
0 0 0 0 0 0 1 5 11 17 16 19 33 49 57 60 63 65 58 47 43 46 49 48 48 48 48 50 53 51 47 39 31 27 21 14 11 9 5 4 5 5 5 4 3 2 1 0 0
0 0 0 0 0 0 1 4 9 14 14 16 27 43 52 58 62 62 54 43 41 44 47 46 43 41 42 45 44 42 39 32 26 22 16 11 9 7 4 4 6 6 5 4 3 2 1 0 0
0 0 0 0 0 0 0 2 6 9 11 17 27 38 46 51 57 57 50 43 40 41 43 43 41 38 39 39 34 31 27 23 19 17 13 9 5 3 4 5 7 6 6 5 3 2 2 1 1
0 0 0 0 0 0 0 1 2 4 8 17 30 37 39 42 47 49 46 40 35 33 35 39 40 39 38 35 31 27 23 21 18 15 12 7 3 1 2 6 7 6 5 3 2 3 3 2 1
0 0 0 0 0 0 0 0 0 1 5 16 31 38 37 37 40 43 41 35 30 27 28 33 40 41 36 33 29 27 27 25 21 16 10 5 2 1 2 5 6 5 4 3 2 4 3 2 1
0 0 0 0 0 0 0 0 0 1 3 12 26 36 38 38 39 40 38 34 29 27 26 31 38 38 33 28 25 25 26 24 19 13 7 3 1 1 3 5 6 5 5 3 2 3 3 1 1
0 0 0 0 0 0 0 0 1 1 3 9 20 29 32 36 41 40 36 35 32 28 29 31 34 34 30 24 20 20 20 18 16 12 7 4 3 4 6 8 8 7 6 3 1 1 1 2 2
0 0 0 0 0 0 0 0 1 1 3 7 15 23 28 33 39 39 36 34 32 31 33 33 33 32 28 23 19 16 14 14 15 14 11 9 7 7 8 7 6 6 4 2 1 0 0 1 2
0 0 0 0 0 0 0 0 1 2 3 5 13 23 31 34 36 37 38 35 33 34 35 34 33 30 25 21 18 14 14 15 15 14 13 13 12 11 8 6 5 4 2 1 0 0 0 0 1
0 0 0 0 0 0 0 0 1 2 2 3 12 25 35 39 39 41 41 38 34 33 34 31 27 25 22 18 16 15 17 18 16 14 14 16 17 16 12 9 8 6 3 1 1 0 0 1 2
0 0 0 0 0 0 0 0 0 1 1 3 11 25 36 40 43 46 45 40 34 31 32 28 21 19 19 17 15 17 21 21 18 17 18 19 21 20 17 13 10 8 4 2 2 1 1 2 4

GEFSSGP_con_prob3kmehi_102.txt.gz
EHI
11 6 1 0 0 0 0 0 0 0 1 2 3 4 4 1 1 2 10 33 59 68 63 64 72 71 56 33 15 5 1 0 0 0 0 0 0 0 0 0 0 0 0 0 0 0 0 0 0
4 2 0 0 0 0 0 0 0 0 2 5 6 6 4 3 5 8 19 43 69 76 69 69 76 75 60 37 16 4 1 0 0 0 0 0 0 0 0 0 0 0 0 0 0 0 0 0 0
0 0 0 0 0 0 0 0 1 1 4 9 11 9 5 8 16 24 38 62 79 81 75 76 80 78 63 40 16 4 0 0 0 0 0 0 0 0 0 0 0 0 0 0 0 0 0 0 0
0 0 0 0 1 0 0 1 2 5 9 16 20 16 10 17 33 49 63 76 81 80 76 78 82 78 63 40 17 4 0 0 0 0 0 0 0 0 0 0 0 0 0 0 0 0 0 0 0
0 0 0 0 0 0 0 1 5 10 16 25 31 25 19 31 56 71 76 80 82 80 75 76 81 78 63 39 17 5 1 0 0 0 0 0 0 0 0 0 0 0 0 0 0 0 0 0 0
0 0 0 0 0 0 0 1 5 13 20 30 39 35 30 47 70 77 75 76 80 80 75 71 73 71 57 36 17 6 2 0 0 0 0 0 0 0 0 0 0 0 0 0 0 0 0 0 0
0 0 0 0 1 0 0 0 4 10 17 29 42 43 40 53 69 71 69 72 75 77 73 64 57 52 43 28 15 7 2 0 0 0 0 0 0 0 0 0 0 0 0 0 0 0 0 0 0
0 0 0 0 0 0 0 1 4 9 14 26 40 46 45 53 65 69 68 68 68 66 61 53 44 37 29 20 12 7 3 0 0 0 0 0 0 0 0 0 0 0 0 0 0 0 0 0 0
0 0 0 0 0 0 0 1 5 12 19 29 41 48 51 58 66 70 69 66 60 53 48 44 38 31 23 16 10 6 3 1 0 0 0 0 0 0 0 0 1 1 0 0 0 0 0 1 1
0 0 0 0 0 0 0 1 6 13 23 36 49 55 58 63 69 71 68 62 53 44 39 38 34 27 19 14 10 7 4 1 0 0 0 0 0 0 0 0 1 1 0 0 0 0 0 0 0
0 0 0 0 0 0 0 1 4 9 20 38 53 58 60 63 67 68 65 57 46 38 33 30 27 21 14 11 10 8 4 1 0 0 0 0 0 0 0 0 1 1 0 0 0 0 0 0 0
0 0 0 0 0 0 0 0 2 6 16 35 50 56 58 60 61 62 60 53 41 35 30 25 21 16 10 7 6 4 3 1 0 0 0 0 0 0 0 0 0 0 0 0 0 0 0 0 0
0 0 0 0 0 0 0 1 3 8 22 40 52 57 59 58 56 55 54 50 43 37 32 25 19 14 9 5 3 1 1 0 0 0 0 0 0 0 0 0 0 0 0 0 0 0 0 0 0
0 0 0 0 0 0 0 1 4 13 29 47 56 60 61 57 54 53 52 50 45 40 34 26 19 15 10 6 3 1 0 0 0 0 0 0 0 0 0 0 0 0 0 0 0 0 0 0 0
0 0 0 0 0 0 0 1 5 15 31 47 55 61 64 59 54 54 54 51 46 41 35 28 22 17 12 7 3 2 1 0 0 0 0 0 0 0 0 0 0 0 0 0 0 0 0 0 0
0 0 0 0 0 0 0 1 6 16 32 46 55 63 67 61 54 54 54 52 48 42 36 31 26 20 14 8 5 3 2 1 2 2 1 0 0 0 0 0 0 0 0 0 0 0 0 0 0
0 0 0 0 0 0 0 1 7 18 35 48 58 67 70 64 55 53 53 51 48 44 38 34 29 23 16 11 8 7 6 5 4 3 2 1 1 0 0 0 0 0 0 0 0 0 0 0 0
0 0 0 0 0 0 0 2 7 18 35 49 58 67 69 64 58 54 53 49 44 41 38 36 31 23 16 13 12 12 10 7 5 4 3 2 2 1 0 0 0 0 0 0 0 0 0 0 0
0 0 0 0 0 0 1 3 7 16 32 46 53 59 63 63 60 55 51 46 40 38 37 35 30 22 16 15 15 14 10 6 4 4 3 3 2 1 0 0 0 0 0 0 0 0 0 0 0
0 0 0 0 0 1 3 4 5 13 27 39 44 51 59 63 60 53 47 42 39 36 34 32 28 21 17 16 15 13 8 4 3 3 3 3 2 1 0 0 0 0 0 0 0 0 0 0 0
0 0 0 0 0 1 2 2 3 9 21 30 34 43 54 60 57 50 44 40 38 34 31 28 25 20 16 12 11 10 8 4 3 3 3 2 1 0 0 0 0 0 0 0 0 0 0 0 0
0 0 0 0 0 0 0 0 1 6 15 20 24 34 45 52 51 46 42 40 37 33 28 24 21 17 12 9 8 7 6 4 3 3 1 1 0 0 0 0 0 0 0 0 0 0 0 0 0
0 0 0 0 0 0 0 0 0 3 8 12 18 27 36 41 44 43 41 40 37 31 25 22 19 15 9 6 6 5 4 3 3 2 1 0 0 0 1 0 0 0 0 0 0 0 0 0 0
0 0 0 0 0 0 0 0 0 0 3 8 15 22 27 32 36 38 38 36 33 28 24 21 19 14 9 5 4 4 3 3 3 1 0 0 0 0 0 0 0 0 0 0 0 0 0 0 0
0 0 0 0 0 0 0 0 0 0 2 7 13 17 22 26 29 31 31 29 27 25 22 21 18 15 10 6 3 3 2 2 2 1 0 0 0 0 0 0 0 0 0 0 0 0 0 0 0
0 0 0 0 0 0 0 0 0 2 5 9 12 13 18 23 25 25 23 21 20 20 20 19 17 13 10 7 4 3 1 1 1 0 0 0 0 0 0 0 0 0 0 0 0 0 0 0 0
0 0 0 0 0 0 0 0 1 4 8 10 10 11 15 20 22 21 18 15 15 16 17 16 14 11 9 7 6 4 2 0 0 0 0 0 0 0 0 0 0 0 0 0 0 0 0 0 0
0 0 0 0 0 0 0 0 1 4 8 10 9 10 14 18 20 19 15 12 12 14 14 14 12 9 7 7 7 6 3 1 0 0 0 0 0 0 0 0 0 0 0 0 0 0 0 0 0
0 0 0 0 0 0 0 0 0 2 6 9 9 10 14 19 21 18 14 12 12 13 12 12 11 9 7 7 7 6 4 2 1 0 0 0 0 0 0 0 0 0 0 0 0 0 0 0 0
0 0 0 0 0 0 0 0 1 2 5 9 11 11 14 19 21 18 15 13 12 12 12 11 11 10 8 7 7 6 4 3 2 1 0 0 0 0 0 0 0 0 0 0 0 0 0 0 0

GEFSSGP_con_prob3kmehi_108.txt.gz
EHI
1 0 0 0 0 0 0 0 0 0 0 0 0 0 1 1 1 1 7 23 44 52 45 48 63 69 67 64 55 43 33 25 20 17 11 6 3 1 0 0 0 0 0 0 0 0 0 0 0
1 0 0 0 0 0 0 0 0 0 1 1 0 1 2 2 2 4 12 30 51 58 51 52 66 72 69 63 51 38 28 20 16 13 8 4 1 0 0 0 0 0 0 0 0 0 0 0 0
1 0 0 0 0 0 0 0 0 1 2 2 1 1 2 2 3 8 23 46 64 66 58 59 71 76 70 59 43 29 21 16 12 9 6 2 0 0 0 0 0 0 0 0 0 0 0 0 0
0 0 0 0 0 0 0 0 2 3 3 4 5 4 2 2 6 22 45 65 75 72 64 65 75 77 69 53 35 23 16 13 10 8 5 1 0 0 0 0 0 0 0 0 0 0 0 0 0
0 0 0 0 0 0 0 1 4 5 5 8 11 10 7 8 21 47 68 78 81 79 71 70 75 76 66 48 31 20 14 11 9 7 3 0 0 0 0 0 0 0 0 0 0 0 0 0 0
0 0 0 0 0 0 0 2 6 8 10 15 20 18 15 21 43 67 78 80 82 83 79 73 71 67 57 42 28 19 13 10 6 4 1 0 0 0 0 0 0 0 0 0 0 0 0 0 0
0 0 0 0 0 0 0 2 6 9 14 21 28 26 22 32 55 74 79 77 79 83 83 75 64 53 44 33 24 17 12 8 4 1 0 0 0 0 0 0 0 0 0 0 0 0 0 0 0
0 0 0 0 0 0 0 2 5 9 15 24 30 29 29 43 63 76 81 78 76 78 79 74 61 47 33 23 17 12 8 5 3 1 0 0 0 0 0 0 0 0 0 0 0 0 0 0 0
0 0 0 0 0 0 0 2 5 10 19 29 33 33 42 60 74 81 82 78 73 69 67 64 55 43 31 21 14 9 5 3 1 0 0 0 0 0 0 0 0 0 0 0 0 0 0 0 0
0 0 0 0 0 0 1 2 6 11 21 34 41 47 61 74 80 80 75 70 66 59 51 46 40 33 27 21 16 10 6 2 0 0 0 0 0 0 0 0 0 0 0 0 0 0 0 0 0
0 0 0 0 0 0 1 2 5 10 16 29 45 60 71 78 77 71 65 59 54 49 41 34 28 23 20 20 18 14 9 3 1 0 0 0 0 0 0 0 0 0 0 0 0 0 0 0 0
0 0 0 0 0 0 0 1 4 7 11 24 46 62 71 74 70 61 53 49 44 40 35 31 26 20 16 17 18 16 10 4 1 0 0 0 0 0 0 0 0 0 0 0 0 0 0 0 0
0 0 0 0 0 0 0 1 2 5 14 30 47 59 65 67 63 52 44 41 38 34 30 28 25 20 15 13 15 14 8 2 0 0 0 0 0 0 0 0 0 0 0 0 0 0 0 0 0
0 0 0 0 0 0 0 0 1 8 21 36 45 49 52 56 57 50 41 38 35 32 27 24 22 18 13 11 10 8 4 1 0 0 0 0 0 0 0 0 0 0 0 0 0 0 0 0 0
0 0 0 0 0 0 0 0 2 12 27 35 36 36 40 45 49 48 44 38 33 30 27 23 19 14 10 8 6 4 1 0 0 0 0 0 0 0 0 0 0 0 0 0 0 0 0 0 0
0 0 0 0 0 0 0 0 3 16 30 34 31 32 36 37 39 42 42 37 32 29 26 22 17 12 8 6 4 1 0 0 0 0 0 0 0 0 0 0 0 0 0 0 0 0 0 0 0
0 0 0 0 0 0 0 0 3 15 29 33 32 34 36 33 31 34 35 31 28 28 25 21 15 11 8 5 2 1 0 0 0 0 0 0 0 0 0 0 0 0 0 0 0 0 0 0 0
0 0 0 0 0 0 0 0 3 13 24 29 31 35 37 33 28 29 29 25 23 23 23 20 15 12 9 5 2 1 0 0 0 0 0 0 0 0 0 0 0 0 0 0 0 0 0 0 0
0 0 0 0 0 0 0 0 2 9 18 23 28 33 36 32 25 24 24 22 19 17 17 17 14 12 10 6 3 1 0 0 0 0 0 0 0 1 1 0 0 0 0 0 0 0 0 0 0
0 0 0 0 0 0 0 0 1 5 10 16 23 27 30 28 22 20 22 21 17 14 13 13 12 10 8 6 3 2 1 1 0 0 0 1 1 1 1 0 0 0 0 0 0 0 0 0 0
0 0 0 0 0 0 0 0 1 2 5 10 15 18 22 22 18 18 19 19 17 14 12 11 11 9 7 4 3 3 3 3 1 0 0 1 1 1 1 0 0 0 0 0 0 0 0 0 0
0 0 0 0 0 0 0 0 0 1 2 5 8 12 16 16 15 15 16 16 16 16 14 13 12 10 8 5 4 5 5 4 3 1 0 1 1 0 0 0 0 0 0 0 0 0 0 0 0
0 0 0 0 0 0 0 0 0 0 1 2 4 8 12 12 11 11 12 13 15 17 17 16 13 12 11 9 6 4 4 4 4 2 0 0 0 0 0 0 0 0 0 0 0 0 0 0 0
0 0 0 0 0 0 0 0 0 0 0 1 2 5 9 9 7 7 9 11 13 16 18 17 15 14 14 11 6 3 3 3 3 2 1 0 0 0 0 0 0 0 0 0 0 0 0 0 0
0 0 0 0 0 0 0 0 0 0 0 0 1 3 5 7 7 6 7 8 9 12 15 15 15 14 13 9 5 2 2 2 2 2 1 0 0 0 0 0 0 0 0 0 0 0 0 0 0
0 0 0 0 0 0 0 0 0 0 0 0 1 2 3 4 7 8 8 8 8 9 11 13 13 13 9 6 3 1 1 1 1 1 1 0 0 0 0 0 0 0 0 0 0 0 0 0 0
0 0 0 0 0 0 0 0 0 0 0 0 1 2 2 3 5 7 8 8 8 8 8 9 10 10 7 5 3 1 0 0 0 0 0 0 0 0 0 0 0 0 0 0 0 0 0 0 0
0 0 0 0 0 0 0 0 0 0 0 0 1 1 1 2 3 5 6 6 6 6 6 6 7 8 7 4 2 1 0 0 0 0 0 0 0 0 0 0 0 0 0 0 0 0 0 0 0
0 0 0 0 0 0 0 0 0 0 0 0 0 0 0 1 3 5 5 5 5 4 4 4 5 6 5 3 1 1 0 0 0 0 0 0 0 0 0 0 0 0 0 0 0 0 0 0 0
0 0 0 0 0 0 0 0 0 0 0 0 0 0 0 1 3 5 5 4 4 2 2 3 4 4 4 2 0 0 0 0 0 0 0 0 0 0 0 0 0 0 0 0 0 0 0 0 0

GEFSSGP_con_prob3kmehi_114.txt.gz
EHI
2 2 3 7 8 3 0 0 0 0 0 1 0 0 0 0 1 2 6 12 17 20 20 17 17 21 23 27 33 36 35 31 22 10 4 2 1 0 0 0 0 0 0 0 0 0 0 0 0
1 1 3 5 4 1 0 0 0 0 0 1 1 1 0 1 3 6 11 17 20 20 20 21 24 27 26 27 31 32 29 24 16 8 3 1 0 0 0 0 0 0 0 0 0 0 0 0 0
0 1 1 1 1 0 0 0 0 1 1 2 2 2 1 3 7 12 18 23 23 21 23 29 31 30 29 26 25 24 20 14 9 6 3 1 0 0 0 0 0 0 0 0 0 0 0 0 0
1 1 1 0 0 0 0 0 1 2 2 3 2 3 5 8 12 19 26 27 25 22 24 33 34 28 24 21 17 15 12 8 6 4 2 1 0 0 0 0 0 0 0 0 0 0 0 0 0
1 1 1 0 0 0 0 0 1 2 3 3 2 6 16 23 25 29 32 28 25 23 24 32 34 25 17 12 10 9 7 5 3 2 1 0 0 0 0 0 0 0 0 0 0 0 0 0 0
0 0 0 0 0 0 0 0 0 2 4 4 3 12 33 46 46 43 38 28 23 22 24 30 30 21 12 7 6 6 5 2 1 0 0 0 0 0 0 0 0 0 0 0 0 0 0 0 0
0 0 0 0 0 0 0 0 0 1 4 4 3 15 44 66 67 58 47 33 25 23 27 29 23 14 8 6 5 5 3 1 0 0 0 0 0 0 0 0 0 0 0 0 0 0 0 0 0
0 0 0 0 0 0 0 0 0 1 4 5 4 17 48 76 81 72 61 47 35 29 29 27 18 10 5 3 3 2 1 0 0 1 1 0 0 0 0 0 0 0 0 0 0 0 0 0 0
0 0 0 0 0 0 0 0 0 1 3 7 13 28 57 82 87 81 73 64 54 42 32 26 19 12 6 2 1 0 0 0 0 1 1 0 0 0 0 0 0 0 0 0 0 0 0 0 0
0 0 0 0 0 0 0 0 0 0 2 9 25 49 72 85 86 81 77 74 69 56 38 25 20 16 10 5 3 2 1 0 0 1 1 0 0 0 0 1 0 0 0 0 0 0 0 0 0
0 0 0 0 0 0 0 0 0 0 1 7 29 60 80 85 82 77 73 72 70 60 43 27 20 17 14 11 8 5 3 1 0 0 0 0 0 0 0 0 0 0 0 0 0 0 0 0 0
0 0 0 0 0 0 0 0 0 0 0 5 26 58 78 81 77 70 66 65 62 56 44 31 23 19 17 16 13 8 5 3 1 0 0 0 0 0 0 0 0 0 0 0 0 0 0 0 0
0 0 0 0 0 0 0 0 0 0 0 6 26 53 69 72 70 65 61 60 57 52 43 33 27 23 21 19 16 10 6 5 2 0 0 0 0 0 0 0 0 0 0 0 0 0 0 0 0
0 0 0 0 0 0 0 0 0 0 1 7 24 45 56 60 61 61 60 60 56 50 43 34 27 24 22 20 17 11 7 6 4 2 1 0 0 0 0 0 0 0 0 0 0 0 0 0 0
0 0 0 0 0 0 0 0 0 1 2 6 18 33 44 50 55 58 59 58 54 49 45 36 27 22 20 19 17 12 7 5 5 4 2 0 0 0 0 0 0 0 0 0 0 0 0 0 0
0 0 0 0 0 0 0 0 0 1 2 5 13 24 34 42 49 52 54 56 53 50 46 37 26 21 20 18 17 14 9 6 6 5 2 0 0 1 1 1 0 0 0 0 0 0 0 0 0
0 0 0 0 0 0 0 0 0 1 1 4 11 19 26 35 43 47 51 54 52 49 44 34 24 21 21 19 18 16 12 8 6 4 2 1 0 1 2 1 0 1 1 0 0 0 0 0 0
0 0 0 0 0 0 0 0 0 0 1 3 9 17 22 28 38 44 48 50 48 44 40 33 26 23 23 22 19 16 12 8 5 4 2 1 0 1 2 2 1 2 2 1 0 0 0 0 0
0 0 0 0 0 0 0 0 1 1 1 3 9 17 22 27 36 44 47 45 42 40 38 34 29 27 25 22 17 13 9 7 5 3 2 1 1 2 2 2 1 2 3 2 1 0 0 0 0
0 0 0 0 0 0 0 0 1 2 2 3 7 15 21 28 39 47 46 40 35 35 36 34 31 28 24 19 15 12 9 7 5 4 3 1 1 1 1 1 1 2 3 2 1 0 0 0 0
0 0 0 0 0 0 0 0 1 1 1 1 4 10 17 26 39 48 46 37 31 31 33 33 30 26 21 18 14 11 9 8 6 6 5 2 1 1 1 1 2 2 2 1 1 1 0 0 0
0 0 0 0 0 0 0 0 0 1 1 1 3 8 15 23 33 41 43 39 34 32 32 32 29 24 21 18 14 10 8 7 7 6 5 2 1 0 0 1 1 2 2 1 1 0 0 0 0
0 0 0 0 0 0 0 0 0 1 1 1 4 9 15 22 26 29 33 34 33 32 31 29 26 22 20 18 14 10 8 8 7 6 5 3 2 1 1 1 2 3 4 2 0 0 0 0 0
0 0 0 0 0 0 0 0 0 0 0 1 4 8 14 18 20 21 23 25 27 29 29 26 23 20 19 18 15 11 10 9 7 5 4 5 4 3 2 3 4 6 6 3 2 1 0 0 0
0 0 0 0 0 0 0 0 0 0 0 1 3 7 11 15 17 19 20 20 23 26 26 24 23 21 20 19 17 14 10 8 6 3 3 5 6 4 3 3 4 5 5 4 4 3 1 0 0
0 0 0 0 0 0 0 0 0 0 0 0 2 6 12 16 18 20 20 21 24 25 24 22 22 21 21 20 19 16 12 7 4 2 3 5 6 5 3 2 3 3 2 3 3 3 1 0 0
0 0 0 0 0 0 0 0 0 0 0 0 2 8 14 19 21 23 22 22 23 23 20 19 19 21 22 21 21 19 14 9 4 2 2 4 6 5 2 2 2 1 2 3 3 2 2 1 0
0 0 0 0 0 0 0 0 0 0 0 0 3 9 17 21 22 24 25 23 21 19 16 16 17 18 18 19 19 18 16 12 7 2 1 2 3 3 2 2 2 1 2 2 2 2 2 1 0
0 0 0 0 0 0 0 0 0 0 0 0 3 12 21 24 22 24 24 21 17 14 13 14 14 13 13 15 15 15 15 12 8 3 1 0 1 1 1 1 1 0 1 1 1 1 1 0 0
0 0 0 0 0 0 0 0 0 0 0 0 3 13 23 25 23 23 22 17 14 11 11 12 11 11 12 13 13 14 13 11 7 3 1 0 1 1 1 0 0 0 0 0 0 0 0 0 0

GEFSSGP_con_prob3kmehi_120.txt.gz
EHI
13 28 44 50 43 21 4 0 0 0 0 0 0 0 1 1 0 2 13 38 56 46 31 30 31 23 11 5 3 2 1 0 0 0 0 0 0 0 0 0 0 0 0 0 0 0 0 0 0
13 24 33 36 30 13 2 0 0 0 0 0 0 0 1 1 1 6 21 45 52 37 25 29 33 26 14 7 4 2 1 0 0 0 0 0 0 0 0 0 0 0 0 0 0 0 0 0 0
15 18 19 18 13 5 0 0 0 0 0 0 1 1 2 1 4 14 31 48 48 34 29 36 37 28 16 8 4 1 0 0 0 0 0 0 0 0 0 0 0 0 0 0 0 0 0 0 0
16 12 9 6 4 1 0 0 0 0 0 1 4 6 6 5 12 24 36 47 51 44 40 42 40 30 17 9 3 1 0 0 0 0 0 0 0 0 0 0 0 0 0 0 0 0 0 0 0
10 6 3 1 0 0 0 0 0 0 0 2 9 15 15 14 22 29 34 47 56 54 48 45 40 29 17 10 5 2 1 0 0 0 0 0 0 0 0 0 0 0 0 0 0 0 0 0 0
3 2 0 0 0 0 0 0 0 0 0 3 10 21 26 26 29 28 30 43 56 60 55 47 38 26 16 10 5 3 1 0 0 0 0 0 0 0 0 0 0 0 0 0 0 0 0 0 0
1 1 0 0 0 0 0 0 0 1 1 2 9 25 39 43 38 31 30 42 59 67 59 43 30 21 15 10 5 2 1 0 0 0 0 0 0 0 0 0 0 0 0 0 0 0 0 0 0
0 0 0 0 0 0 0 0 1 2 3 4 10 29 54 63 52 40 36 45 63 72 61 39 24 17 13 9 5 2 1 0 0 0 0 0 0 0 0 0 0 0 0 0 0 0 0 0 0
0 0 0 0 0 0 0 0 1 2 6 11 21 42 65 70 60 50 46 53 67 73 60 39 26 16 9 6 5 2 0 0 0 0 0 0 0 0 0 0 0 0 0 0 0 0 0 0 0
0 0 0 0 0 0 0 0 1 2 6 17 36 57 69 69 64 61 59 62 70 72 59 46 34 18 7 6 6 3 1 0 0 0 0 0 0 1 1 1 0 0 0 0 0 0 0 0 0
0 0 0 0 0 0 0 0 0 1 4 17 43 65 72 70 69 68 66 67 71 71 62 53 43 28 17 14 9 4 2 0 1 1 1 0 1 2 3 1 0 0 0 0 0 0 0 0 0
0 0 0 0 0 0 0 0 0 0 2 15 39 63 72 72 71 69 67 68 71 73 66 60 54 45 37 28 15 7 4 2 4 7 4 1 1 3 4 2 0 0 0 0 0 1 0 0 0
0 0 0 0 0 0 0 1 1 1 4 16 38 61 72 73 70 69 69 70 72 75 73 69 66 61 54 42 25 13 10 8 11 13 7 3 2 4 5 3 1 1 1 0 0 1 0 0 0
0 0 0 0 0 0 1 1 2 3 5 16 37 60 72 74 72 72 73 73 74 77 78 76 73 66 59 47 32 21 16 15 17 17 13 7 6 8 9 5 2 3 3 3 2 1 0 0 0
0 0 0 0 0 0 1 2 3 5 6 14 34 58 73 76 75 75 76 75 74 75 75 73 68 61 54 42 30 23 18 18 23 26 23 16 13 16 13 6 3 3 5 5 3 1 0 0 0
0 0 0 0 0 1 1 3 5 7 7 15 32 53 71 78 76 75 75 74 72 71 70 67 60 54 47 36 27 22 22 28 35 38 33 25 22 20 14 7 6 5 5 3 1 0 0 0 0
0 0 0 0 0 1 1 3 6 7 8 16 32 52 70 79 78 75 74 73 72 71 69 64 59 53 45 36 29 27 32 40 46 45 39 32 26 20 13 10 12 11 6 3 3 4 4 2 0
0 0 0 0 0 1 1 3 6 6 8 17 36 56 72 79 78 75 73 72 72 71 69 66 61 55 48 39 34 33 36 43 48 46 42 36 28 20 14 13 17 15 9 5 6 9 8 4 1
0 0 0 0 0 0 0 2 5 5 8 19 37 55 69 76 77 75 72 72 72 71 69 67 62 56 49 42 36 33 34 39 42 43 42 37 29 21 15 15 19 17 13 9 8 9 8 4 2
0 0 0 0 0 0 0 1 5 7 8 17 33 47 59 70 77 76 73 73 72 71 69 65 60 54 48 41 35 31 31 34 36 39 41 36 28 21 16 16 17 17 16 14 12 11 7 4 3
0 0 0 0 0 0 0 2 6 9 9 13 24 38 50 65 75 75 73 73 73 71 67 61 57 51 44 37 31 27 27 28 31 38 41 36 29 24 21 20 18 17 18 18 16 13 9 6 6
0 0 0 0 0 0 0 2 6 9 10 13 20 31 45 59 69 72 71 70 69 67 63 58 54 49 41 35 30 26 24 23 26 34 39 35 30 27 27 26 24 21 20 19 16 13 11 9 8
0 0 0 0 0 0 0 1 3 7 9 13 20 31 44 56 65 68 66 65 62 60 57 55 52 47 41 34 29 26 25 24 24 29 33 30 25 23 26 29 28 24 21 19 16 13 10 8 8
0 0 0 0 0 0 0 0 2 5 7 11 19 32 46 57 65 66 62 58 55 52 52 51 49 44 37 31 27 27 30 31 28 26 25 21 17 16 19 25 28 25 23 21 18 13 8 6 6
0 0 0 0 0 0 0 0 2 3 4 8 17 31 43 55 64 64 59 53 50 48 48 49 45 40 33 28 28 30 34 35 29 22 17 15 13 13 18 23 26 26 24 21 17 12 8 6 5
0 0 0 0 0 0 0 1 2 3 4 8 17 28 39 50 60 63 58 51 48 47 48 47 43 38 33 31 33 35 36 33 27 20 16 14 12 13 19 26 28 26 23 19 15 10 8 8 6
0 0 0 0 0 0 0 1 4 5 5 7 15 25 35 46 55 59 57 50 44 46 48 45 41 38 35 35 37 37 35 31 28 25 20 17 14 13 17 25 28 25 22 20 15 9 8 8 6
0 0 0 0 0 0 0 1 5 7 6 6 11 21 32 44 52 55 54 47 41 43 45 44 40 37 35 35 35 33 32 32 32 31 27 23 19 17 18 22 22 20 19 18 14 9 8 8 6
0 0 0 0 0 0 0 0 3 5 5 5 9 19 31 42 52 57 57 48 40 38 41 40 37 34 32 32 31 29 30 32 32 32 31 29 26 23 22 20 17 14 13 12 10 8 7 7 6
0 0 0 0 0 0 0 0 1 3 4 5 10 20 31 41 52 62 62 50 39 36 37 36 33 30 29 29 29 29 31 32 30 29 30 33 30 25 22 20 16 12 9 8 8 5 5 5 4

GEFSSGP_con_prob3kmehi_126.txt.gz
EHI
6 4 4 4 2 0 0 0 0 0 0 1 4 4 2 1 1 2 6 23 48 52 40 38 40 33 22 15 10 6 3 1 1 0 0 0 0 0 0 0 0 0 0 0 0 0 0 0 0
2 2 2 2 1 0 0 0 1 2 1 1 4 6 4 4 6 7 12 31 53 54 43 42 44 37 25 16 10 6 3 1 0 0 0 0 0 0 0 0 0 0 0 0 0 0 0 0 0
0 0 1 1 0 0 0 1 5 6 3 2 4 6 5 7 13 16 24 45 58 55 47 49 53 45 29 17 11 7 4 1 0 0 0 0 0 0 0 0 0 0 0 0 0 0 0 0 0
0 0 1 1 0 0 0 2 6 7 5 4 6 6 5 12 24 32 41 54 62 57 52 57 61 52 34 19 11 8 5 3 1 0 0 0 0 0 0 0 0 0 0 0 0 0 0 0 0
0 0 0 0 0 0 0 2 6 8 8 9 10 8 10 25 43 51 51 56 63 64 58 60 64 55 37 21 12 8 5 2 1 0 0 0 0 0 0 0 0 0 0 0 0 0 0 0 0
0 0 0 0 0 0 0 2 7 11 13 14 14 10 17 42 59 57 51 53 62 66 60 57 57 50 36 22 12 7 4 1 0 0 0 0 0 0 0 0 0 0 0 0 0 0 0 0 0
0 0 0 0 0 0 1 3 7 12 15 18 18 15 25 49 63 58 52 53 59 62 59 52 45 40 32 21 11 6 3 1 0 0 0 0 0 0 0 0 0 0 0 0 0 0 0 0 0
0 0 0 0 0 0 1 2 6 10 15 19 21 21 31 51 65 65 61 57 57 58 56 49 40 33 28 19 10 5 3 1 0 0 0 0 0 0 0 0 0 0 0 0 0 0 0 0 0
0 0 0 0 0 0 0 2 4 10 16 20 24 29 40 57 71 74 69 64 60 57 52 46 39 30 24 16 8 3 1 0 0 0 0 0 0 0 0 0 0 0 0 0 0 0 0 0 0
0 0 0 0 0 0 1 3 6 11 18 25 33 42 52 65 76 79 75 70 64 59 50 42 33 24 18 13 7 2 0 0 0 0 0 0 0 0 0 0 0 0 0 0 0 0 0 0 0
0 0 0 0 0 0 3 5 8 12 17 29 46 55 59 67 75 79 78 73 67 60 49 37 25 17 12 10 7 2 0 0 0 0 0 0 0 0 0 0 0 0 0 0 0 0 0 0 0
0 0 0 0 0 0 3 6 10 12 18 34 52 58 57 62 69 75 78 74 67 61 49 36 23 13 8 7 5 2 0 0 0 0 0 0 0 0 0 0 0 0 0 0 0 0 0 0 0
0 0 1 1 0 1 3 7 12 16 26 44 56 55 51 54 61 69 75 73 67 61 52 39 27 15 8 5 3 2 1 0 0 0 0 0 0 0 0 0 0 0 0 0 0 0 0 0 0
0 0 0 1 1 2 4 8 13 23 39 55 60 54 48 49 56 64 71 72 66 61 55 45 32 20 12 7 4 2 1 0 0 0 0 0 0 0 0 0 0 0 0 0 0 0 0 0 0
0 0 0 0 0 1 3 6 14 30 49 61 62 58 52 50 54 59 65 69 67 61 57 50 39 28 19 11 6 2 1 0 0 0 0 0 0 0 0 0 0 0 0 0 0 0 0 0 0
0 0 0 0 0 0 1 5 14 33 53 61 63 64 60 54 53 55 61 67 67 62 58 52 45 37 27 18 11 6 3 2 1 2 1 0 0 0 0 0 0 0 0 0 0 0 0 0 0
0 0 0 0 0 0 1 4 13 32 51 60 65 69 67 59 55 56 61 66 64 60 56 52 48 43 35 25 17 12 8 5 5 6 4 1 0 0 0 0 0 0 0 0 0 0 0 0 0
0 0 0 0 0 0 1 4 12 28 47 60 67 71 68 62 58 58 62 64 61 57 54 52 49 43 36 27 21 16 12 9 9 8 6 3 0 0 0 0 0 0 0 0 0 0 0 0 0
0 0 0 0 0 0 1 4 11 24 42 57 66 70 68 64 61 61 63 63 61 58 55 51 45 39 32 25 21 16 11 10 11 9 7 4 2 1 1 1 0 0 0 0 0 0 0 0 0
0 0 0 0 0 0 1 5 11 20 35 50 60 66 68 67 64 64 65 64 62 60 55 47 39 33 28 24 19 14 9 9 10 8 6 6 4 3 2 1 1 0 0 0 0 0 0 0 0
0 0 0 0 0 0 1 4 10 18 27 40 50 59 66 68 68 66 65 63 61 57 50 42 35 29 26 22 17 12 7 6 8 8 7 6 5 4 3 1 1 0 0 0 0 0 0 0 0
0 0 0 0 0 0 1 2 7 16 26 35 45 54 62 67 66 62 59 58 56 50 42 36 31 27 24 21 18 12 6 4 6 7 7 5 3 2 2 1 0 0 0 0 0 0 0 0 0
0 0 0 0 0 0 0 0 4 14 26 35 44 52 58 61 58 51 47 47 47 44 38 33 28 24 22 20 18 12 6 4 5 5 4 3 1 0 1 1 0 0 0 0 0 0 0 0 0
0 0 0 0 0 0 0 0 2 8 19 31 41 48 53 54 50 42 35 36 39 38 34 29 25 21 18 17 16 12 7 4 4 3 3 3 2 1 0 0 0 0 0 0 0 0 0 0 0
0 0 0 0 0 0 0 0 0 3 12 26 40 47 50 50 45 36 31 30 32 32 29 25 21 19 16 14 14 12 9 5 3 3 3 3 3 2 1 1 1 1 0 0 0 0 0 0 0
0 0 0 0 0 0 0 0 0 4 13 26 40 49 50 47 38 30 28 28 27 26 24 19 17 17 16 14 13 12 10 7 4 3 3 3 3 3 2 1 2 1 0 0 0 0 0 0 0
0 0 0 0 0 0 0 0 1 8 19 31 42 48 47 41 32 26 25 24 21 20 19 17 15 16 17 16 14 12 10 9 5 3 3 3 3 3 2 1 1 1 0 0 0 0 0 0 0
0 0 0 0 0 0 0 0 1 9 21 33 41 46 45 41 34 28 24 21 18 16 15 14 14 14 15 15 14 12 11 9 6 3 2 2 1 1 1 1 0 1 1 0 0 0 0 0 0
0 0 0 0 0 0 0 0 1 6 15 26 37 42 44 44 39 31 24 19 18 15 12 10 10 11 12 13 14 13 11 8 5 3 2 1 0 0 0 0 0 1 1 0 0 0 0 0 0
0 0 0 0 0 0 0 0 1 4 11 22 34 40 42 44 40 31 24 19 17 15 11 7 7 8 10 11 13 13 11 8 6 4 4 2 1 0 0 0 0 1 1 0 0 0 0 0 0